Bellingham, WA

4:47 AM PDT on April 27, 2017 (GMT -0700)
Bellingham International

Weather History for KBLI - January, 2012

Change the Weather History Date:

Monday, January 9, 2012

  Actual Average Record
Temperature  
Mean Temperature 47 °F 39 °F  
Max Temperature 52 °F 45 °F 61 °F (1986)
Min Temperature 42 °F 33 °F 16 °F (1950)
Degree Days  
Heating Degree Days 18 26  
Month to date heating degree days 240  
Cooling Degree Days 0 0  
Month to date cooling degree days 0  
Year to date cooling degree days 0  
Moisture  
Dew Point 40 °F    
Average Humidity 77    
Maximum Humidity 89    
Minimum Humidity 59    
Precipitation  
Precipitation 0.01 in 0.16 in 0.92 in (1991)
Month to date precipitation 1.32  
Year to date precipitation 1.32  
Sea Level Pressure  
Sea Level Pressure 30.24 in    
Wind  
Wind Speed 6 mph (South)    
Max Wind Speed 13 mph    
Max Gust Speed 23 mph    
Visibility 10 miles    
Events Rain    
T = Trace of Precipitation, MM = Missing Value Source: NWS Daily Summary

Daily Weather History Graph

Daily Weather History Graph

Search for Another Location

Airport or City:

Trip Planner

Search our weather history database for the weather conditions in past years. The results will help you decide how hot, cold, wet, or windy it might be!

Date:

Astronomy

Jan. 09, 2012 Rise Set
Actual Time 8:01 AM PST 4:33 PM PST
Civil Twilight 7:25 AM PST 5:09 PM PST
Nautical Twilight 6:45 AM PST 5:49 PM PST
Astronomical Twilight 6:07 AM PST 6:27 PM PST
Moon 5:31 PM PST (1/9) 8:00 AM PST (1/9)
Length of Visible Light 9h 44m
Length of Day
8h 31m
Full, 100% of the Moon is Illuminated
Jan 9
Full
Jan 16
Last Quarter
Jan 22
New
Jan 30
First Quarter
Feb 7
Full

Hourly Weather History & Observations

Time (PST) Temp. Windchill Dew Point Humidity Pressure Visibility Wind Dir Wind Speed Gust Speed Precip Events Conditions
12:53 AM 44.1 °F 40.1 °F 41.0 °F 89% 30.21 in 10.0 mi NW 6.9 mph - 0.00 in   Overcast
1:53 AM 44.1 °F - 41.0 °F 89% 30.20 in 10.0 mi Calm Calm - 0.00 in   Mostly Cloudy
2:53 AM 44.1 °F - 41.0 °F 89% 30.21 in 10.0 mi Calm Calm - N/A   Overcast
3:53 AM 44.1 °F - 41.0 °F 89% 30.21 in 10.0 mi Calm Calm - 0.00 in Rain Light Rain
4:53 AM 46.0 °F 42.5 °F 41.0 °F 83% 30.21 in 10.0 mi South 6.9 mph - 0.00 in Rain Light Rain
5:53 AM 52.0 °F - 39.0 °F 61% 30.23 in 10.0 mi SSE 10.4 mph - 0.01 in Rain Light Rain
6:53 AM 52.0 °F - 37.9 °F 59% 30.21 in 10.0 mi SSE 12.7 mph 23.0 mph 0.00 in   Overcast
7:53 AM 50.0 °F - 39.2 °F 66% 30.20 in 10.0 mi SSE 10.4 mph - N/A   Mostly Cloudy
8:53 AM 50.0 °F - 39.0 °F 66% 30.24 in 10.0 mi South 11.5 mph 19.6 mph N/A   Scattered Clouds
9:53 AM 48.0 °F - 41.0 °F 77% 30.27 in 10.0 mi South 10.4 mph 16.1 mph N/A   Mostly Cloudy
10:53 AM 48.0 °F - 42.1 °F 80% 30.28 in 10.0 mi SSE 8.1 mph - N/A   Overcast
11:53 AM 50.0 °F - 42.8 °F 76% 30.23 in 10.0 mi South 11.5 mph 20.7 mph N/A   Overcast
12:00 PM 50.0 °F - 42.8 °F 76% 30.23 in 10.0 mi South 11.5 mph 21.9 mph N/A   Overcast
12:34 PM 48.2 °F - 42.8 °F 82% 30.22 in 10.0 mi South 12.7 mph - N/A   Overcast
12:53 PM 48.0 °F - 43.0 °F 83% 30.24 in 10.0 mi South 10.4 mph - N/A   Overcast
1:53 PM 48.0 °F - 43.0 °F 83% 30.23 in 10.0 mi SSE 10.4 mph 17.3 mph N/A   Overcast
2:53 PM 48.0 °F - 43.0 °F 83% 30.23 in 10.0 mi South 9.2 mph - N/A   Mostly Cloudy
3:53 PM 48.0 °F - 43.0 °F 83% 30.22 in 10.0 mi South 6.9 mph - N/A   Partly Cloudy
4:53 PM 46.9 °F - 42.1 °F 83% 30.23 in 10.0 mi South 5.8 mph - N/A   Partly Cloudy
5:53 PM 46.4 °F 45.2 °F 41.0 °F 81% 30.22 in 10.0 mi West 3.5 mph - N/A   Overcast
6:00 PM 46.4 °F 44.3 °F 39.2 °F 76% 30.22 in 10.0 mi West 4.6 mph - N/A   Overcast
6:23 PM 46.4 °F - 39.2 °F 76% 30.22 in 10.0 mi Calm Calm - N/A   Mostly Cloudy
6:53 PM 46.0 °F - 37.9 °F 73% 30.24 in 10.0 mi Calm Calm - N/A   Overcast
7:53 PM 45.0 °F 43.5 °F 37.9 °F 76% 30.25 in 10.0 mi Variable 3.5 mph - N/A   Overcast
8:53 PM 45.0 °F 41.2 °F 35.1 °F 68% 30.26 in 10.0 mi Variable 6.9 mph - N/A   Overcast
9:53 PM 45.0 °F 40.6 °F 35.1 °F 68% 30.27 in 10.0 mi West 8.1 mph - N/A   Overcast
10:53 PM 44.1 °F 41.5 °F 34.0 °F 68% 30.29 in 10.0 mi Variable 4.6 mph - N/A   Mostly Cloudy
11:18 PM 42.8 °F - 33.8 °F 70% 30.27 in 10.0 mi Calm Calm - N/A   Overcast
11:53 PM 42.1 °F 39.2 °F 33.1 °F 70% 30.30 in 10.0 mi Variable 4.6 mph - N/A   Mostly Cloudy